Temp
53 52 52 51 51 52 52 51 50 50 51 52 52 53 53 53 52 52 51 50 50 49 49 48 47 46 45 45 46 46 45 44 42 41 40 40 39 39 38 37 37 37 38 37 37 37 36 36 36 37 38 36 35 35 35 34 33 34 35 35 35 34 33 33 32 32 32 31 32
51 51 51 50 50 51 52 51 51 51 51 53 53 53 53 52 52 51 50 49 48 48 48 48 47 45 45 46 45 45 44 43 42 41 40 40 39 38 38 37 37 37 37 38 37 37 37 36 36 38 38 37 35 35 35 33 33 33 34 34 34 33 32 33 32 31 31 31 30
51 51 51 51 52 53 53 52 52 52 52 53 53 53 53 52 51 50 49 47 46 46 47 48 47 46 46 45 44 43 42 41 40 40 39 39 39 38 38 38 38 37 37 37 37 37 36 35 36 37 38 37 35 35 35 34 33 33 34 34 33 33 34 35 33 32 31 32 31
51 51 51 51 52 53 53 53 52 52 52 53 52 52 52 51 50 49 47 44 44 45 47 47 47 47 45 44 42 41 40 38 39 39 39 39 38 38 38 38 38 38 37 37 36 36 36 35 37 37 37 35 34 34 35 35 33 33 34 34 34 34 34 35 34 34 35 34 32
51 51 51 51 52 52 53 53 53 52 52 52 52 51 50 49 48 47 46 45 46 46 47 47 47 46 43 42 41 40 39 38 38 38 38 38 38 38 38 38 38 37 37 36 36 36 36 35 37 37 36 34 36 36 35 34 33 33 34 35 35 36 36 37 37 36 35 34 33
51 50 50 51 51 52 53 53 52 51 51 51 50 49 48 48 47 47 47 46 45 44 44 44 44 42 41 41 41 40 39 39 38 38 38 38 38 38 38 38 37 37 36 36 36 36 36 35 37 37 37 36 36 35 34 33 33 33 34 35 36 36 36 35 35 34 34 32 32
52 52 52 53 53 53 53 52 51 50 50 49 49 47 46 46 45 45 44 44 43 43 42 42 42 41 41 41 41 40 39 39 38 38 38 38 38 38 38 37 37 36 36 35 35 35 35 35 37 38 38 37 38 36 34 33 34 34 33 33 35 35 33 32 32 33 33 32 32
51 52 53 54 55 54 53 52 50 49 49 49 48 46 45 45 45 45 44 44 43 43 42 41 41 41 41 41 40 40 40 39 39 38 38 38 38 38 37 37 36 36 36 35 35 35 35 35 38 38 37 37 38 37 35 33 33 32 32 32 33 33 32 31 31 32 33 33 32
51 52 53 55 54 54 53 51 50 49 48 47 47 46 45 45 45 45 45 44 43 42 42 41 40 40 40 40 40 40 40 40 39 39 39 38 38 38 37 36 36 36 36 35 36 36 36 37 38 37 37 38 38 36 35 34 33 32 32 32 32 32 33 34 33 33 34 33 33
51 51 52 53 52 51 51 49 49 48 47 46 46 45 44 44 45 45 45 44 42 42 41 41 40 40 40 40 40 40 40 40 39 39 38 38 38 38 37 36 36 36 36 35 36 36 36 37 37 36 36 36 35 34 34 34 33 33 33 32 32 32 33 35 33 32 32 31 31
50 50 51 51 50 49 49 48 47 47 47 46 46 45 44 43 44 44 43 42 42 42 42 41 42 42 41 40 40 39 39 39 39 39 38 38 37 37 37 36 36 36 36 36 36 37 37 37 36 36 35 35 34 34 34 34 34 33 33 32 32 32 31 31 30 29 29 29 30
49 49 49 49 48 47 47 47 46 45 45 45 45 45 45 44 43 42 41 42 42 42 42 41 42 42 41 40 39 39 38 39 38 38 37 37 36 36 36 36 36 36 37 37 37 37 37 36 36 35 35 35 34 34 34 34 34 34 33 32 31 30 30 29 28 28 28 28 29
48 48 47 46 46 45 45 45 44 44 44 44 45 44 43 42 41 41 41 42 41 41 41 41 42 42 41 40 39 39 38 38 37 36 36 36 36 35 35 36 36 36 37 37 37 37 36 36 36 35 35 35 34 33 33 34 34 33 32 30 30 29 29 29 28 27 27 27 28
47 46 45 44 44 44 44 44 43 43 44 44 44 43 42 41 40 40 41 41 41 41 41 41 40 40 40 40 39 39 38 37 36 36 35 35 35 35 36 36 36 37 37 37 37 37 36 36 35 35 35 35 34 33 33 33 32 31 31 30 29 29 29 29 27 27 27 27 27
46 45 44 44 44 44 44 43 43 44 44 44 43 42 41 40 40 40 41 42 41 41 41 41 40 40 40 41 40 39 38 36 35 35 35 35 35 36 36 36 36 36 37 37 36 36 37 36 36 35 35 35 34 33 32 32 31 31 30 30 29 29 28 28 27 27 27 27 27
45 44 44 45 44 44 43 43 44 44 44 43 42 41 41 40 40 40 41 42 42 41 41 41 40 40 40 40 40 39 37 36 36 36 36 36 36 36 36 36 36 36 36 37 36 36 36 36 35 35 35 34 33 32 31 31 31 30 30 30 29 29 28 28 27 27 27 27 27
44 44 45 45 45 44 43 43 44 44 44 42 42 41 41 41 41 41 41 42 42 42 41 41 40 40 40 39 38 38 37 37 36 36 36 36 36 36 36 36 36 36 36 36 36 36 35 35 35 35 35 34 33 32 31 31 31 30 30 30 29 28 28 28 27 26 26 27 26
44 44 44 44 44 44 43 43 43 43 42 42 41 41 41 41 41 42 42 42 42 42 41 41 40 40 40 39 37 36 37 37 37 37 37 37 37 37 36 36 35 35 35 35 35 35 34 35 35 35 34 34 33 32 32 32 31 31 30 29 29 28 27 27 26 26 26 26 26
44 44 44 44 44 43 43 43 43 43 42 42 42 42 42 42 42 43 43 42 41 41 41 41 40 39 39 39 38 36 36 37 38 38 37 37 36 36 36 35 35 34 34 34 34 34 35 36 35 34 34 34 33 33 33 32 31 30 30 29 28 27 26 26 25 25 25 26 25
44 44 44 44 44 43 43 43 43 43 43 43 43 43 42 42 43 44 44 42 41 41 41 41 40 39 38 38 38 37 37 37 37 37 37 36 36 35 35 35 34 34 34 33 34 35 36 36 35 34 34 33 33 33 33 31 30 29 28 27 27 26 26 25 25 25 25 25 25
44 44 44 44 44 44 44 43 43 43 43 43 42 42 42 43 44 44 44 43 42 41 41 41 40 39 39 38 39 38 38 37 37 37 37 36 36 35 35 34 34 34 33 33 35 36 36 35 34 33 33 32 33 32 32 30 29 28 27 26 26 25 25 25 25 24 24 24 24
44 44 45 45 44 44 43 43 43 43 43 42 42 42 43 45 45 44 44 43 42 41 41 40 40 39 39 39 39 39 39 37 38 37 37 36 36 36 36 35 35 34 33 33 34 35 35 34 34 33 32 31 30 30 30 29 27 26 25 25 24 24 24 24 23 23 23 23 24
44 44 45 45 44 43 42 43 43 43 42 42 42 44 45 46 45 44 43 42 41 41 40 40 39 39 40 40 40 39 39 38 38 38 38 37 37 37 37 36 35 34 33 32 33 34 33 33 33 32 31 29 27 27 27 27 26 25 24 24 23 23 23 22 22 22 22 23 24
44 45 44 44 43 42 43 43 43 43 43 44 45 46 46 45 44 43 42 41 41 40 40 39 39 39 39 39 39 39 39 38 38 38 38 38 37 37 36 35 34 33 32 32 34 34 32 31 30 29 28 26 25 25 25 25 25 24 24 23 22 22 21 21 21 22 22 23 24
45 44 43 43 43 42 42 42 43 44 45 46 47 47 46 44 43 42 41 41 40 40 40 40 40 39 39 38 38 38 38 38 37 36 35 35 35 35 35 34 33 33 33 34 36 35 34 32 30 27 25 24 24 24 25 25 25 24 23 23 22 21 20 21 21 22 22 22 23
45 43 42 42 42 42 42 43 44 45 47 47 47 46 45 43 42 41 41 41 41 40 40 41 40 39 38 38 38 37 37 36 36 35 34 33 33 34 34 33 33 33 35 36 36 35 35 35 33 29 25 23 23 24 24 25 25 24 22 21 21 20 20 20 20 21 21 22 22
43 42 42 43 44 44 45 45 46 47 47 47 46 45 43 42 41 41 41 41 41 41 41 42 41 40 38 38 39 38 37 35 35 34 34 33 34 33 33 32 33 34 35 36 36 36 36 36 35 32 28 24 23 24 24 24 23 22 21 20 19 19 20 20 20 20 21 22 22
41 42 42 44 45 46 47 48 48 47 46 46 44 43 42 42 42 42 42 42 42 42 42 42 41 39 38 38 39 38 37 35 35 35 36 37 36 35 34 34 34 34 35 36 36 36 37 37 36 35 32 27 25 24 23 21 20 19 18 18 19 19 19 19 20 20 20 20 20
41 43 44 45 46 47 47 47 47 46 45 44 43 43 42 42 42 42 42 42 42 42 42 41 39 39 39 39 39 38 37 36 37 38 39 38 36 35 35 34 33 34 35 37 37 37 37 37 36 36 34 31 26 22 20 19 19 18 18 18 18 18 18 18 19 19 19 19 19
43 44 45 46 46 46 46 46 45 45 44 43 42 42 42 42 42 42 43 43 42 42 41 39 39 39 39 39 39 39 38 38 39 39 38 36 34 33 32 31 32 33 35 37 37 37 37 36 36 36 35 33 26 21 17 16 16 17 18 18 18 18 18 18 18 18 18 18 18
45 45 45 45 45 45 45 44 44 43 43 42 42 42 42 42 42 43 42 42 41 40 38 38 38 38 38 39 39 39 38 38 40 39 38 35 33 32 32 31 31 32 35 37 37 36 36 36 36 36 34 32 26 20 16 16 16 17 17 18 18 18 18 18 18 18 18 18 18
45 45 45 44 44 44 44 43 43 42 42 41 42 42 42 42 42 42 41 40 39 38 38 38 38 38 39 39 39 38 38 39 39 39 37 35 34 33 33 31 30 31 33 37 37 36 36 36 36 35 34 32 26 21 17 17 17 17 18 18 18 18 18 18 18 18 18 18 18
45 45 44 43 43 43 43 43 42 41 41 41 42 42 42 42 41 40 39 38 38 38 39 39 39 39 39 39 38 37 37 37 38 37 36 35 34 33 32 30 29 31 34 37 36 36 36 36 35 35 33 32 26 20 17 17 17 17 18 18 18 18 18 18 18 18 18 18 18
45 44 43 42 42 42 42 42 41 41 40 41 41 41 41 40 39 38 38 38 38 39 39 39 39 39 39 38 37 36 35 34 35 36 36 35 34 33 31 29 29 32 35 37 36 36 36 36 35 34 33 31 24 19 17 17 17 17 17 17 17 17 17 18 18 18 18 18 18
44 43 42 42 42 42 42 41 41 41 41 41 40 40 39 38 38 38 38 38 38 38 38 38 38 38 37 36 35 34 34 34 35 35 35 34 33 32 31 30 30 32 36 36 36 36 36 36 35 34 32 28 22 18 17 17 17 17 17 17 17 17 17 17 18 18 18 18 18
43 42 42 41 42 42 41 41 41 41 40 40 39 38 38 37 38 38 38 37 36 36 36 36 36 35 34 34 34 33 33 34 35 35 34 34 33 32 31 30 29 31 35 36 36 36 36 35 35 33 31 25 19 17 16 17 16 16 16 16 17 17 17 17 18 18 18 18 18
42 42 41 41 41 41 41 40 40 40 39 39 38 37 37 37 38 38 37 36 36 35 35 35 34 33 33 33 33 33 33 34 35 35 35 35 33 32 30 28 27 29 33 36 36 36 36 35 35 33 29 21 17 16 16 15 15 15 15 16 15 15 16 16 16 17 17 17 19
42 42 41 41 41 40 40 39 39 39 38 37 37 37 37 37 38 37 36 34 35 35 34 34 33 32 32 33 33 34 35 35 36 36 36 35 33 31 28 27 26 27 30 35 36 36 36 35 35 32 28 20 17 16 16 15 14 15 15 15 14 14 14 14 15 15 16 17 22
42 41 41 40 40 40 39 39 38 37 37 37 37 37 37 36 36 36 35 34 34 34 34 33 32 32 32 33 33 34 35 36 37 37 36 34 32 30 28 26 26 27 29 34 35 36 36 35 35 33 29 21 17 16 15 15 14 14 14 14 13 13 13 13 14 14 15 16 25
41 40 40 39 39 39 38 38 37 37 37 37 37 36 35 35 35 35 35 33 33 33 33 32 32 32 31 31 33 34 35 35 35 34 33 32 32 31 30 26 26 27 29 33 35 36 36 35 35 33 29 21 17 15 15 14 14 13 13 12 12 13 13 13 13 14 15 15 21
39 39 39 39 38 38 37 37 37 37 37 36 36 35 34 33 33 34 34 33 32 32 31 31 32 32 31 31 32 33 34 34 33 32 31 30 31 32 31 26 26 26 28 31 34 36 36 36 35 33 29 20 16 14 14 14 14 14 13 12 12 12 13 13 13 13 14 14 15
MSLP
1022.26 1022.30 1022.30 1022.34 1022.46 1022.70 1022.94 1023.18 1023.34 1023.38 1023.46 1023.54 1023.70 1023.78 1023.90 1023.98 1024.18 1024.42 1024.62 1024.82 1024.98 1025.06 1025.10 1025.18 1025.26 1025.38 1025.46 1025.54 1025.54 1025.50 1025.54 1025.62 1025.66 1025.74 1025.82 1025.94 1026.02 1026.10 1026.18 1026.26 1026.30 1026.34 1026.34 1026.38 1026.42 1026.46 1026.46 1026.46 1026.50 1026.50 1026.54 1026.54 1026.54 1026.54 1026.50 1026.46 1026.50 1026.50 1026.46 1026.46 1026.46 1026.42 1026.42 1026.46 1026.46 1026.46 1026.42 1026.38 1026.42
1022.54 1022.62 1022.62 1022.62 1022.70 1022.82 1023.02 1023.18 1023.34 1023.46 1023.46 1023.54 1023.62 1023.74 1023.90 1024.10 1024.34 1024.54 1024.74 1024.86 1024.94 1025.02 1025.10 1025.22 1025.30 1025.38 1025.46 1025.54 1025.50 1025.50 1025.58 1025.66 1025.74 1025.86 1025.94 1026.02 1026.10 1026.18 1026.22 1026.30 1026.34 1026.38 1026.38 1026.42 1026.46 1026.46 1026.46 1026.50 1026.54 1026.54 1026.54 1026.54 1026.54 1026.54 1026.50 1026.46 1026.50 1026.50 1026.46 1026.46 1026.42 1026.38 1026.38 1026.38 1026.38 1026.38 1026.38 1026.42 1026.46
1022.62 1022.74 1022.78 1022.86 1022.90 1022.98 1023.06 1023.22 1023.38 1023.46 1023.58 1023.66 1023.74 1023.90 1024.02 1024.22 1024.42 1024.62 1024.78 1024.94 1025.02 1025.02 1025.14 1025.26 1025.34 1025.38 1025.42 1025.46 1025.54 1025.58 1025.66 1025.74 1025.82 1025.94 1026.02 1026.14 1026.18 1026.26 1026.34 1026.34 1026.42 1026.42 1026.42 1026.46 1026.46 1026.46 1026.46 1026.46 1026.50 1026.54 1026.54 1026.54 1026.58 1026.58 1026.54 1026.46 1026.46 1026.46 1026.46 1026.46 1026.38 1026.38 1026.38 1026.38 1026.42 1026.46 1026.46 1026.46 1026.50
1022.70 1022.78 1022.90 1022.98 1023.02 1023.10 1023.18 1023.30 1023.46 1023.54 1023.62 1023.74 1023.90 1023.98 1024.14 1024.34 1024.58 1024.74 1024.94 1025.06 1025.10 1025.14 1025.18 1025.22 1025.34 1025.34 1025.42 1025.46 1025.58 1025.66 1025.74 1025.82 1025.90 1025.98 1026.06 1026.18 1026.22 1026.30 1026.34 1026.34 1026.46 1026.46 1026.46 1026.46 1026.46 1026.46 1026.46 1026.46 1026.46 1026.50 1026.54 1026.54 1026.58 1026.58 1026.50 1026.42 1026.46 1026.46 1026.42 1026.38 1026.34 1026.38 1026.38 1026.38 1026.42 1026.42 1026.42 1026.46 1026.50
1022.78 1022.90 1022.98 1023.06 1023.14 1023.18 1023.22 1023.34 1023.46 1023.58 1023.66 1023.74 1023.90 1024.14 1024.34 1024.54 1024.74 1024.90 1024.98 1025.02 1025.10 1025.10 1025.10 1025.14 1025.26 1025.34 1025.46 1025.50 1025.62 1025.70 1025.78 1025.86 1025.90 1025.98 1026.10 1026.18 1026.30 1026.34 1026.34 1026.34 1026.42 1026.46 1026.46 1026.46 1026.46 1026.46 1026.46 1026.46 1026.46 1026.46 1026.50 1026.50 1026.46 1026.46 1026.42 1026.38 1026.46 1026.46 1026.42 1026.34 1026.34 1026.38 1026.38 1026.38 1026.38 1026.42 1026.46 1026.46 1026.54
1022.90 1023.02 1023.06 1023.10 1023.18 1023.18 1023.22 1023.30 1023.42 1023.54 1023.70 1023.82 1024.06 1024.34 1024.54 1024.70 1024.78 1024.90 1024.98 1025.02 1025.10 1025.10 1025.14 1025.18 1025.30 1025.38 1025.46 1025.54 1025.62 1025.74 1025.82 1025.90 1025.94 1026.02 1026.06 1026.18 1026.26 1026.30 1026.34 1026.34 1026.38 1026.42 1026.46 1026.46 1026.46 1026.46 1026.46 1026.46 1026.42 1026.46 1026.46 1026.42 1026.38 1026.34 1026.34 1026.38 1026.46 1026.46 1026.46 1026.46 1026.46 1026.42 1026.38 1026.42 1026.42 1026.46 1026.46 1026.50 1026.62
1022.86 1022.94 1023.02 1023.02 1023.10 1023.18 1023.22 1023.34 1023.46 1023.62 1023.78 1024.02 1024.22 1024.46 1024.62 1024.70 1024.78 1024.90 1024.98 1025.02 1025.06 1025.10 1025.18 1025.22 1025.34 1025.42 1025.50 1025.54 1025.62 1025.74 1025.86 1025.90 1025.98 1026.02 1026.06 1026.18 1026.22 1026.26 1026.34 1026.34 1026.34 1026.38 1026.38 1026.38 1026.38 1026.42 1026.46 1026.46 1026.46 1026.42 1026.42 1026.38 1026.38 1026.34 1026.34 1026.42 1026.46 1026.50 1026.58 1026.58 1026.50 1026.46 1026.46 1026.46 1026.46 1026.46 1026.50 1026.58 1026.62
1022.78 1022.82 1022.90 1022.90 1022.98 1023.10 1023.26 1023.38 1023.58 1023.74 1023.90 1024.10 1024.26 1024.42 1024.54 1024.62 1024.74 1024.86 1024.94 1024.98 1025.02 1025.14 1025.18 1025.26 1025.34 1025.46 1025.50 1025.58 1025.66 1025.74 1025.86 1025.90 1026.02 1026.02 1026.06 1026.10 1026.18 1026.18 1026.26 1026.30 1026.34 1026.34 1026.34 1026.30 1026.34 1026.34 1026.34 1026.38 1026.42 1026.42 1026.42 1026.38 1026.38 1026.38 1026.38 1026.46 1026.50 1026.58 1026.62 1026.62 1026.50 1026.46 1026.42 1026.46 1026.46 1026.46 1026.50 1026.54 1026.62
1022.78 1022.82 1022.86 1022.90 1022.98 1023.14 1023.30 1023.46 1023.62 1023.78 1023.98 1024.14 1024.26 1024.34 1024.46 1024.54 1024.66 1024.74 1024.86 1024.98 1025.02 1025.10 1025.18 1025.34 1025.42 1025.46 1025.50 1025.58 1025.66 1025.74 1025.86 1025.90 1025.98 1026.02 1026.02 1026.06 1026.14 1026.18 1026.22 1026.26 1026.30 1026.30 1026.26 1026.22 1026.26 1026.26 1026.30 1026.34 1026.34 1026.38 1026.38 1026.38 1026.38 1026.38 1026.42 1026.46 1026.50 1026.54 1026.58 1026.54 1026.50 1026.46 1026.42 1026.34 1026.38 1026.42 1026.46 1026.46 1026.54
1022.82 1022.86 1022.90 1022.98 1023.10 1023.18 1023.34 1023.54 1023.66 1023.78 1023.94 1024.14 1024.22 1024.34 1024.42 1024.50 1024.58 1024.66 1024.78 1024.90 1025.02 1025.14 1025.26 1025.34 1025.38 1025.46 1025.50 1025.62 1025.70 1025.74 1025.82 1025.86 1025.90 1025.98 1025.98 1026.02 1026.06 1026.14 1026.18 1026.18 1026.22 1026.22 1026.18 1026.18 1026.18 1026.18 1026.22 1026.30 1026.38 1026.42 1026.38 1026.34 1026.42 1026.42 1026.38 1026.42 1026.46 1026.50 1026.54 1026.46 1026.46 1026.46 1026.38 1026.34 1026.34 1026.38 1026.46 1026.50 1026.58
1022.78 1022.86 1022.94 1023.02 1023.18 1023.30 1023.46 1023.62 1023.74 1023.86 1023.94 1024.06 1024.22 1024.34 1024.42 1024.46 1024.62 1024.70 1024.78 1024.90 1025.02 1025.14 1025.26 1025.30 1025.34 1025.42 1025.54 1025.62 1025.70 1025.74 1025.74 1025.78 1025.86 1025.90 1025.98 1026.02 1026.06 1026.06 1026.10 1026.14 1026.18 1026.18 1026.14 1026.10 1026.06 1026.10 1026.18 1026.26 1026.34 1026.38 1026.38 1026.34 1026.34 1026.34 1026.34 1026.34 1026.38 1026.46 1026.46 1026.46 1026.42 1026.42 1026.46 1026.46 1026.46 1026.46 1026.50 1026.58 1026.58
1022.78 1022.90 1022.94 1023.06 1023.18 1023.34 1023.50 1023.70 1023.82 1023.90 1024.02 1024.14 1024.18 1024.34 1024.46 1024.54 1024.62 1024.74 1024.82 1024.90 1025.02 1025.14 1025.18 1025.22 1025.26 1025.34 1025.46 1025.58 1025.62 1025.70 1025.70 1025.74 1025.74 1025.86 1025.90 1025.98 1026.02 1026.02 1026.02 1026.06 1026.06 1026.06 1026.02 1026.02 1026.02 1026.02 1026.14 1026.26 1026.34 1026.38 1026.34 1026.34 1026.30 1026.30 1026.30 1026.30 1026.34 1026.38 1026.42 1026.46 1026.46 1026.46 1026.50 1026.54 1026.54 1026.54 1026.58 1026.62 1026.62
1022.74 1022.90 1023.02 1023.14 1023.26 1023.38 1023.54 1023.70 1023.86 1023.98 1024.10 1024.18 1024.26 1024.34 1024.46 1024.62 1024.70 1024.74 1024.82 1024.94 1025.02 1025.14 1025.18 1025.18 1025.22 1025.30 1025.38 1025.46 1025.58 1025.62 1025.66 1025.74 1025.74 1025.78 1025.86 1025.90 1025.94 1025.94 1025.98 1025.98 1025.98 1025.98 1025.94 1025.94 1025.90 1025.98 1026.10 1026.18 1026.26 1026.34 1026.34 1026.30 1026.26 1026.22 1026.22 1026.26 1026.30 1026.34 1026.46 1026.50 1026.54 1026.58 1026.62 1026.66 1026.66 1026.62 1026.66 1026.70 1026.66
1022.74 1022.94 1023.10 1023.22 1023.34 1023.46 1023.58 1023.74 1023.86 1023.98 1024.06 1024.18 1024.30 1024.42 1024.50 1024.62 1024.74 1024.74 1024.78 1024.90 1024.98 1025.06 1025.10 1025.18 1025.22 1025.26 1025.30 1025.34 1025.46 1025.54 1025.62 1025.66 1025.70 1025.74 1025.78 1025.86 1025.86 1025.90 1025.90 1025.90 1025.90 1025.90 1025.90 1025.90 1025.90 1025.94 1026.02 1026.14 1026.18 1026.22 1026.22 1026.22 1026.22 1026.22 1026.22 1026.26 1026.34 1026.42 1026.50 1026.62 1026.66 1026.74 1026.78 1026.74 1026.74 1026.74 1026.74 1026.74 1026.70
1022.86 1022.98 1023.10 1023.22 1023.34 1023.46 1023.58 1023.74 1023.86 1023.94 1024.02 1024.18 1024.30 1024.38 1024.46 1024.62 1024.70 1024.74 1024.74 1024.78 1024.90 1024.98 1025.06 1025.14 1025.18 1025.22 1025.22 1025.22 1025.34 1025.42 1025.50 1025.62 1025.66 1025.74 1025.74 1025.78 1025.78 1025.82 1025.82 1025.82 1025.82 1025.86 1025.86 1025.86 1025.90 1025.90 1026.02 1026.06 1026.14 1026.18 1026.18 1026.18 1026.22 1026.30 1026.34 1026.42 1026.50 1026.58 1026.62 1026.74 1026.78 1026.82 1026.86 1026.82 1026.82 1026.78 1026.78 1026.74 1026.74
1022.90 1023.02 1023.18 1023.26 1023.34 1023.46 1023.62 1023.74 1023.82 1023.90 1024.02 1024.18 1024.26 1024.34 1024.46 1024.54 1024.62 1024.66 1024.70 1024.74 1024.86 1024.94 1025.02 1025.10 1025.18 1025.18 1025.22 1025.22 1025.26 1025.34 1025.46 1025.54 1025.62 1025.66 1025.74 1025.74 1025.74 1025.74 1025.74 1025.74 1025.74 1025.74 1025.78 1025.82 1025.90 1025.94 1026.02 1026.02 1026.10 1026.14 1026.18 1026.22 1026.34 1026.46 1026.54 1026.62 1026.74 1026.74 1026.78 1026.82 1026.86 1026.90 1026.90 1026.90 1026.86 1026.82 1026.78 1026.74 1026.74
1022.98 1023.10 1023.18 1023.26 1023.34 1023.46 1023.62 1023.70 1023.78 1023.90 1024.02 1024.14 1024.18 1024.30 1024.38 1024.46 1024.58 1024.66 1024.74 1024.74 1024.86 1024.94 1025.02 1025.10 1025.14 1025.18 1025.22 1025.30 1025.30 1025.34 1025.38 1025.46 1025.50 1025.58 1025.62 1025.62 1025.62 1025.66 1025.66 1025.66 1025.70 1025.70 1025.74 1025.82 1025.90 1026.02 1026.06 1026.14 1026.18 1026.18 1026.22 1026.30 1026.42 1026.58 1026.70 1026.82 1026.90 1026.94 1026.94 1026.94 1026.94 1026.94 1026.94 1026.90 1026.86 1026.82 1026.78 1026.74 1026.70
1023.02 1023.10 1023.18 1023.30 1023.34 1023.46 1023.62 1023.66 1023.74 1023.90 1024.02 1024.10 1024.18 1024.26 1024.34 1024.46 1024.58 1024.66 1024.74 1024.74 1024.86 1024.98 1025.02 1025.10 1025.14 1025.18 1025.18 1025.22 1025.30 1025.30 1025.34 1025.34 1025.38 1025.42 1025.46 1025.46 1025.46 1025.50 1025.58 1025.62 1025.62 1025.66 1025.74 1025.82 1025.90 1026.02 1026.10 1026.18 1026.22 1026.26 1026.30 1026.34 1026.46 1026.62 1026.74 1026.86 1027.02 1027.10 1027.14 1027.14 1027.10 1027.02 1026.98 1026.90 1026.82 1026.78 1026.74 1026.70 1026.62
1023.02 1023.10 1023.18 1023.34 1023.38 1023.46 1023.58 1023.66 1023.74 1023.90 1023.98 1024.06 1024.14 1024.22 1024.34 1024.42 1024.50 1024.62 1024.74 1024.82 1024.90 1024.94 1025.02 1025.06 1025.14 1025.14 1025.14 1025.18 1025.18 1025.22 1025.18 1025.18 1025.22 1025.22 1025.26 1025.26 1025.34 1025.38 1025.46 1025.54 1025.62 1025.74 1025.78 1025.86 1025.90 1025.98 1026.02 1026.14 1026.18 1026.30 1026.34 1026.46 1026.46 1026.54 1026.62 1026.74 1026.94 1027.10 1027.18 1027.18 1027.18 1027.06 1026.98 1026.90 1026.82 1026.74 1026.70 1026.62 1026.58
1023.02 1023.10 1023.18 1023.26 1023.34 1023.46 1023.58 1023.66 1023.74 1023.86 1023.94 1024.02 1024.10 1024.18 1024.34 1024.42 1024.46 1024.62 1024.70 1024.78 1024.86 1024.90 1024.94 1025.02 1025.06 1025.10 1025.10 1025.14 1025.14 1025.10 1025.06 1025.02 1025.02 1025.06 1025.10 1025.14 1025.22 1025.34 1025.42 1025.54 1025.66 1025.74 1025.82 1025.86 1025.90 1025.90 1026.02 1026.10 1026.22 1026.34 1026.42 1026.46 1026.46 1026.46 1026.50 1026.62 1026.74 1026.94 1027.06 1027.14 1027.10 1027.02 1026.94 1026.86 1026.74 1026.70 1026.62 1026.62 1026.54
1022.98 1023.06 1023.18 1023.22 1023.34 1023.46 1023.58 1023.66 1023.74 1023.82 1023.90 1024.02 1024.10 1024.18 1024.34 1024.42 1024.50 1024.62 1024.66 1024.74 1024.78 1024.86 1024.90 1024.94 1025.02 1025.06 1025.10 1025.10 1025.10 1025.06 1025.02 1024.98 1024.94 1024.98 1024.98 1025.02 1025.14 1025.22 1025.38 1025.50 1025.62 1025.70 1025.74 1025.78 1025.86 1025.90 1026.02 1026.18 1026.34 1026.42 1026.46 1026.50 1026.50 1026.50 1026.54 1026.62 1026.70 1026.78 1026.90 1027.02 1026.98 1026.90 1026.86 1026.82 1026.74 1026.66 1026.62 1026.58 1026.54
1022.94 1023.02 1023.14 1023.22 1023.34 1023.46 1023.58 1023.70 1023.74 1023.86 1023.98 1024.06 1024.18 1024.26 1024.34 1024.46 1024.50 1024.58 1024.62 1024.66 1024.74 1024.78 1024.86 1024.90 1024.94 1025.02 1025.02 1025.02 1025.02 1025.02 1024.98 1024.98 1024.98 1024.98 1024.98 1025.02 1025.10 1025.18 1025.34 1025.46 1025.54 1025.66 1025.74 1025.82 1025.90 1025.98 1026.14 1026.30 1026.42 1026.50 1026.58 1026.58 1026.58 1026.62 1026.66 1026.70 1026.74 1026.82 1026.90 1026.90 1026.90 1026.90 1026.86 1026.82 1026.74 1026.70 1026.62 1026.58 1026.50
1022.90 1023.02 1023.10 1023.18 1023.34 1023.46 1023.62 1023.74 1023.86 1023.94 1024.06 1024.18 1024.22 1024.26 1024.34 1024.42 1024.46 1024.50 1024.58 1024.62 1024.70 1024.74 1024.82 1024.90 1024.90 1024.90 1024.90 1024.90 1024.94 1024.94 1024.98 1024.98 1025.02 1025.02 1025.02 1025.10 1025.18 1025.22 1025.34 1025.42 1025.58 1025.74 1025.86 1025.98 1026.02 1026.06 1026.22 1026.42 1026.54 1026.62 1026.62 1026.62 1026.66 1026.74 1026.74 1026.74 1026.82 1026.86 1026.90 1026.94 1026.94 1026.94 1026.90 1026.90 1026.82 1026.74 1026.66 1026.58 1026.50
1022.90 1023.02 1023.14 1023.26 1023.38 1023.54 1023.74 1023.86 1023.94 1024.02 1024.10 1024.14 1024.18 1024.18 1024.30 1024.38 1024.46 1024.50 1024.62 1024.66 1024.74 1024.78 1024.82 1024.86 1024.86 1024.86 1024.86 1024.86 1024.86 1024.90 1024.94 1024.98 1025.02 1025.02 1025.10 1025.18 1025.22 1025.30 1025.38 1025.46 1025.66 1025.82 1025.98 1026.10 1026.18 1026.22 1026.38 1026.58 1026.66 1026.74 1026.74 1026.74 1026.74 1026.74 1026.74 1026.74 1026.82 1026.90 1026.94 1026.98 1027.02 1027.02 1027.02 1026.94 1026.86 1026.74 1026.66 1026.62 1026.54
1022.86 1023.02 1023.18 1023.34 1023.46 1023.62 1023.74 1023.86 1023.90 1023.98 1024.02 1024.06 1024.10 1024.18 1024.34 1024.46 1024.50 1024.62 1024.70 1024.74 1024.74 1024.78 1024.78 1024.78 1024.78 1024.78 1024.82 1024.82 1024.82 1024.86 1024.90 1024.94 1024.98 1025.02 1025.14 1025.22 1025.30 1025.38 1025.46 1025.62 1025.82 1025.98 1026.10 1026.22 1026.26 1026.34 1026.50 1026.62 1026.74 1026.74 1026.74 1026.74 1026.74 1026.74 1026.74 1026.74 1026.82 1026.90 1026.94 1027.02 1027.10 1027.10 1027.06 1026.98 1026.90 1026.74 1026.70 1026.62 1026.58
1022.82 1023.02 1023.18 1023.34 1023.46 1023.54 1023.66 1023.74 1023.82 1023.90 1023.94 1024.02 1024.18 1024.30 1024.42 1024.50 1024.58 1024.62 1024.70 1024.74 1024.74 1024.74 1024.78 1024.78 1024.78 1024.78 1024.82 1024.82 1024.82 1024.86 1024.86 1024.90 1024.94 1025.02 1025.14 1025.26 1025.38 1025.50 1025.62 1025.82 1025.94 1026.10 1026.22 1026.30 1026.42 1026.50 1026.58 1026.62 1026.62 1026.70 1026.74 1026.74 1026.74 1026.74 1026.74 1026.78 1026.82 1026.90 1027.02 1027.10 1027.14 1027.18 1027.14 1027.02 1026.90 1026.78 1026.74 1026.62 1026.58
1022.90 1023.06 1023.18 1023.26 1023.34 1023.46 1023.58 1023.66 1023.74 1023.90 1024.02 1024.14 1024.30 1024.38 1024.46 1024.54 1024.62 1024.66 1024.74 1024.74 1024.74 1024.74 1024.74 1024.74 1024.74 1024.74 1024.82 1024.82 1024.86 1024.90 1024.90 1024.90 1024.94 1025.02 1025.14 1025.26 1025.42 1025.62 1025.78 1025.90 1026.02 1026.18 1026.26 1026.34 1026.46 1026.46 1026.46 1026.46 1026.50 1026.58 1026.62 1026.70 1026.70 1026.74 1026.74 1026.86 1026.90 1027.02 1027.06 1027.14 1027.14 1027.18 1027.14 1027.02 1026.94 1026.86 1026.74 1026.70 1026.62
1022.94 1023.06 1023.18 1023.18 1023.34 1023.46 1023.54 1023.62 1023.78 1023.94 1024.10 1024.22 1024.34 1024.46 1024.50 1024.54 1024.62 1024.62 1024.70 1024.70 1024.70 1024.70 1024.70 1024.70 1024.70 1024.74 1024.78 1024.82 1024.86 1024.86 1024.86 1024.86 1024.90 1025.02 1025.14 1025.22 1025.42 1025.62 1025.74 1025.86 1026.02 1026.18 1026.26 1026.30 1026.34 1026.38 1026.38 1026.38 1026.46 1026.46 1026.50 1026.62 1026.62 1026.70 1026.78 1026.90 1027.02 1027.10 1027.14 1027.14 1027.14 1027.14 1027.06 1027.02 1026.94 1026.90 1026.82 1026.74 1026.66
1022.94 1023.02 1023.14 1023.26 1023.42 1023.50 1023.62 1023.74 1023.90 1024.02 1024.18 1024.30 1024.38 1024.46 1024.50 1024.58 1024.62 1024.62 1024.62 1024.62 1024.66 1024.70 1024.74 1024.70 1024.70 1024.74 1024.78 1024.78 1024.78 1024.74 1024.74 1024.78 1024.86 1024.90 1025.02 1025.22 1025.46 1025.58 1025.66 1025.78 1025.98 1026.14 1026.22 1026.26 1026.34 1026.34 1026.38 1026.38 1026.42 1026.46 1026.46 1026.46 1026.58 1026.66 1026.78 1026.90 1027.02 1027.14 1027.18 1027.14 1027.10 1027.06 1027.02 1026.94 1026.94 1026.90 1026.86 1026.78 1026.70
1022.94 1023.06 1023.18 1023.34 1023.46 1023.62 1023.74 1023.90 1024.02 1024.10 1024.18 1024.30 1024.38 1024.46 1024.50 1024.54 1024.58 1024.58 1024.62 1024.62 1024.70 1024.70 1024.70 1024.70 1024.74 1024.78 1024.78 1024.74 1024.70 1024.66 1024.70 1024.70 1024.70 1024.74 1024.90 1025.18 1025.46 1025.66 1025.78 1025.86 1026.02 1026.18 1026.26 1026.34 1026.34 1026.34 1026.34 1026.38 1026.42 1026.42 1026.38 1026.42 1026.54 1026.66 1026.82 1026.94 1027.06 1027.10 1027.10 1027.10 1027.02 1027.02 1026.98 1026.90 1026.90 1026.90 1026.86 1026.78 1026.74
1023.02 1023.18 1023.34 1023.46 1023.62 1023.78 1023.90 1023.94 1024.02 1024.10 1024.22 1024.34 1024.42 1024.46 1024.50 1024.50 1024.54 1024.54 1024.58 1024.62 1024.70 1024.70 1024.66 1024.66 1024.74 1024.74 1024.70 1024.62 1024.58 1024.62 1024.62 1024.62 1024.66 1024.74 1024.94 1025.18 1025.50 1025.74 1025.86 1025.94 1026.06 1026.18 1026.30 1026.30 1026.34 1026.34 1026.30 1026.34 1026.34 1026.34 1026.34 1026.34 1026.50 1026.66 1026.82 1026.94 1027.02 1027.02 1027.02 1027.02 1026.98 1026.94 1026.94 1026.90 1026.86 1026.86 1026.82 1026.78 1026.74
1023.14 1023.30 1023.42 1023.62 1023.78 1023.90 1023.94 1024.02 1024.10 1024.18 1024.26 1024.34 1024.42 1024.46 1024.46 1024.46 1024.46 1024.50 1024.54 1024.62 1024.66 1024.66 1024.66 1024.66 1024.66 1024.62 1024.62 1024.54 1024.50 1024.50 1024.58 1024.62 1024.62 1024.74 1024.94 1025.18 1025.46 1025.62 1025.78 1025.90 1026.02 1026.18 1026.18 1026.18 1026.18 1026.18 1026.22 1026.26 1026.30 1026.30 1026.26 1026.34 1026.46 1026.66 1026.78 1026.86 1026.90 1026.94 1026.90 1026.90 1026.90 1026.90 1026.86 1026.82 1026.78 1026.78 1026.74 1026.74 1026.74
1023.22 1023.38 1023.58 1023.74 1023.90 1023.98 1024.02 1024.06 1024.14 1024.22 1024.30 1024.34 1024.38 1024.42 1024.46 1024.46 1024.46 1024.54 1024.58 1024.62 1024.62 1024.62 1024.62 1024.62 1024.62 1024.62 1024.62 1024.54 1024.46 1024.50 1024.58 1024.62 1024.62 1024.70 1024.90 1025.10 1025.34 1025.58 1025.74 1025.94 1026.02 1026.14 1026.10 1026.02 1026.06 1026.14 1026.14 1026.18 1026.18 1026.22 1026.22 1026.30 1026.46 1026.66 1026.78 1026.78 1026.82 1026.82 1026.82 1026.78 1026.78 1026.78 1026.78 1026.74 1026.74 1026.74 1026.70 1026.66 1026.62
1023.34 1023.50 1023.66 1023.82 1023.90 1024.02 1024.02 1024.10 1024.18 1024.22 1024.30 1024.34 1024.34 1024.38 1024.46 1024.50 1024.54 1024.58 1024.58 1024.58 1024.54 1024.54 1024.50 1024.46 1024.46 1024.46 1024.46 1024.46 1024.46 1024.54 1024.62 1024.66 1024.70 1024.82 1024.98 1025.18 1025.34 1025.58 1025.78 1025.98 1026.06 1026.06 1026.02 1025.98 1026.02 1026.06 1026.10 1026.14 1026.18 1026.18 1026.22 1026.30 1026.46 1026.62 1026.70 1026.70 1026.70 1026.70 1026.74 1026.74 1026.74 1026.70 1026.70 1026.70 1026.66 1026.62 1026.62 1026.58 1026.54
1023.42 1023.58 1023.74 1023.82 1023.90 1023.98 1024.02 1024.10 1024.18 1024.18 1024.26 1024.34 1024.38 1024.46 1024.46 1024.50 1024.54 1024.54 1024.50 1024.46 1024.46 1024.46 1024.42 1024.38 1024.34 1024.34 1024.34 1024.38 1024.42 1024.50 1024.62 1024.74 1024.78 1024.90 1025.06 1025.26 1025.42 1025.62 1025.78 1025.90 1025.98 1025.98 1025.94 1025.90 1025.94 1026.02 1026.02 1026.06 1026.10 1026.14 1026.18 1026.34 1026.46 1026.54 1026.50 1026.54 1026.62 1026.66 1026.66 1026.70 1026.66 1026.62 1026.62 1026.62 1026.58 1026.54 1026.50 1026.46 1026.46
1023.42 1023.58 1023.70 1023.82 1023.90 1023.94 1024.02 1024.06 1024.18 1024.22 1024.30 1024.38 1024.42 1024.46 1024.50 1024.50 1024.46 1024.42 1024.38 1024.34 1024.42 1024.42 1024.42 1024.38 1024.38 1024.38 1024.42 1024.46 1024.46 1024.50 1024.62 1024.70 1024.82 1024.98 1025.10 1025.22 1025.38 1025.54 1025.70 1025.78 1025.90 1025.90 1025.86 1025.86 1025.90 1025.94 1025.98 1025.98 1026.02 1026.06 1026.18 1026.34 1026.46 1026.42 1026.38 1026.46 1026.54 1026.62 1026.62 1026.62 1026.62 1026.62 1026.62 1026.58 1026.54 1026.46 1026.42 1026.38 1026.34
1023.42 1023.54 1023.70 1023.78 1023.86 1023.90 1023.98 1024.10 1024.18 1024.30 1024.34 1024.38 1024.46 1024.46 1024.46 1024.42 1024.34 1024.34 1024.30 1024.30 1024.38 1024.46 1024.42 1024.38 1024.38 1024.42 1024.46 1024.46 1024.46 1024.46 1024.46 1024.58 1024.74 1024.94 1025.10 1025.18 1025.34 1025.46 1025.62 1025.74 1025.82 1025.86 1025.82 1025.78 1025.82 1025.86 1025.90 1025.90 1025.94 1026.02 1026.10 1026.22 1026.26 1026.30 1026.34 1026.42 1026.50 1026.58 1026.62 1026.62 1026.62 1026.62 1026.58 1026.54 1026.50 1026.46 1026.38 1026.34 1026.26
1023.46 1023.58 1023.70 1023.78 1023.90 1023.94 1024.02 1024.14 1024.26 1024.34 1024.38 1024.38 1024.38 1024.34 1024.34 1024.34 1024.30 1024.26 1024.26 1024.30 1024.34 1024.42 1024.46 1024.42 1024.42 1024.42 1024.38 1024.38 1024.38 1024.38 1024.34 1024.42 1024.58 1024.78 1024.98 1025.10 1025.18 1025.34 1025.46 1025.62 1025.74 1025.78 1025.74 1025.74 1025.74 1025.74 1025.78 1025.82 1025.86 1025.90 1025.98 1026.06 1026.06 1026.14 1026.26 1026.42 1026.50 1026.58 1026.62 1026.62 1026.62 1026.58 1026.54 1026.46 1026.46 1026.42 1026.34 1026.30 1026.10
1023.46 1023.58 1023.70 1023.86 1023.94 1024.02 1024.10 1024.18 1024.26 1024.30 1024.34 1024.34 1024.34 1024.26 1024.26 1024.30 1024.26 1024.22 1024.18 1024.18 1024.22 1024.30 1024.34 1024.38 1024.42 1024.38 1024.34 1024.30 1024.30 1024.34 1024.34 1024.38 1024.46 1024.58 1024.74 1024.90 1025.02 1025.14 1025.30 1025.46 1025.62 1025.70 1025.70 1025.62 1025.62 1025.62 1025.66 1025.70 1025.74 1025.74 1025.86 1025.90 1025.90 1026.02 1026.18 1026.34 1026.46 1026.58 1026.62 1026.62 1026.62 1026.58 1026.50 1026.42 1026.38 1026.34 1026.34 1026.22 1025.98
1023.46 1023.62 1023.74 1023.90 1023.98 1024.06 1024.14 1024.18 1024.18 1024.22 1024.22 1024.22 1024.26 1024.26 1024.22 1024.18 1024.18 1024.14 1024.10 1024.14 1024.14 1024.18 1024.22 1024.26 1024.30 1024.30 1024.26 1024.22 1024.26 1024.34 1024.34 1024.38 1024.42 1024.46 1024.58 1024.70 1024.78 1024.94 1025.10 1025.34 1025.46 1025.54 1025.54 1025.46 1025.46 1025.46 1025.50 1025.58 1025.62 1025.62 1025.74 1025.86 1025.82 1025.90 1026.02 1026.22 1026.42 1026.54 1026.62 1026.62 1026.62 1026.58 1026.50 1026.38 1026.34 1026.34 1026.30 1026.18 1026.02
1023.50 1023.62 1023.78 1023.90 1023.98 1024.06 1024.14 1024.18 1024.18 1024.14 1024.14 1024.18 1024.18 1024.18 1024.18 1024.14 1024.10 1024.02 1024.02 1024.10 1024.14 1024.14 1024.18 1024.18 1024.18 1024.18 1024.18 1024.18 1024.22 1024.30 1024.34 1024.38 1024.46 1024.46 1024.54 1024.62 1024.70 1024.82 1024.94 1025.10 1025.22 1025.34 1025.34 1025.30 1025.26 1025.30 1025.34 1025.38 1025.42 1025.46 1025.58 1025.74 1025.74 1025.78 1025.94 1026.18 1026.38 1026.50 1026.58 1026.58 1026.58 1026.58 1026.54 1026.46 1026.34 1026.30 1026.22 1026.18 1026.02
Wind_Speed
6 5 5 5 5 5 5 4 4 4 4 4 4 4 3 4 4 3 3 3 3 3 3 3 3 2 2 2 3 4 4 4 4 4 4 4 3 3 3 2 2 3 3 2 2 2 2 1 1 1 1 0 0 1 1 1 0 0 0 0 1 1 2 1 1 1 1 1 0
6 6 5 5 5 5 5 4 4 3 3 3 4 4 4 4 3 3 3 3 3 3 3 3 3 3 3 3 4 4 4 4 4 4 4 4 3 3 3 2 2 2 3 3 2 2 2 1 1 1 1 0 1 1 1 1 0 0 1 1 1 1 1 1 1 1 1 0 0
6 5 5 5 5 5 5 4 4 4 5 4 4 4 4 3 3 2 2 2 2 3 3 3 3 3 4 4 4 4 4 3 4 4 4 3 3 2 2 2 2 2 2 2 2 2 1 1 1 1 0 0 1 1 1 1 1 0 1 2 1 1 0 0 0 0 1 1 1
6 5 5 5 6 6 5 4 5 5 5 4 4 4 3 2 2 2 2 2 2 2 3 3 3 3 4 4 4 3 3 3 4 4 4 3 2 2 2 2 2 2 1 1 1 1 1 1 1 1 1 0 0 1 2 1 1 1 1 2 1 0 0 0 0 1 1 2 2
6 5 5 6 6 6 6 5 6 5 5 4 4 3 3 2 2 2 2 2 2 3 3 4 4 3 3 3 4 3 3 3 3 4 4 3 2 2 2 2 2 1 1 1 1 1 1 1 1 1 1 1 1 2 2 2 1 1 1 1 0 0 1 1 1 2 2 2 1
6 5 5 5 6 6 5 5 6 6 5 4 4 3 3 2 2 3 3 3 3 3 3 4 4 3 3 3 4 4 3 3 3 3 4 3 2 2 2 2 1 1 1 1 1 1 1 1 0 0 1 1 1 2 2 1 0 1 1 1 1 1 1 2 2 2 2 2 2
7 6 6 6 6 6 5 5 5 5 5 4 5 5 4 4 4 4 4 4 3 3 3 3 3 3 3 3 3 3 3 3 2 3 3 3 2 2 2 1 1 1 1 1 1 0 0 0 0 1 1 1 2 2 1 1 1 1 1 1 1 1 1 2 1 1 2 2 2
6 6 6 7 7 7 6 5 5 4 4 4 5 6 6 6 6 6 5 4 3 3 2 2 2 3 3 3 3 3 3 3 3 3 3 3 3 2 2 1 1 1 1 1 1 1 1 0 1 1 2 2 2 2 1 1 2 1 1 0 1 1 1 1 1 1 1 2 2
5 6 6 6 6 6 6 6 6 5 5 5 6 6 6 7 7 6 5 4 3 3 2 2 2 2 3 3 3 3 3 4 3 3 3 3 3 2 1 1 1 1 1 2 1 1 1 1 1 1 1 1 2 2 1 1 2 2 1 1 0 0 1 1 1 1 2 2 2
6 6 5 5 5 5 5 6 6 6 6 6 6 6 6 6 6 5 5 4 3 3 2 2 2 2 2 3 3 3 3 4 4 3 3 2 3 2 2 1 1 1 2 2 1 1 0 1 1 1 1 1 1 1 0 1 2 2 1 1 1 1 1 1 1 2 2 2 2
7 6 5 4 5 5 5 5 5 6 6 6 6 6 6 5 5 4 4 3 3 3 2 2 3 3 3 2 3 3 3 3 3 3 3 3 3 2 2 2 2 2 2 2 1 0 0 0 1 1 1 1 1 1 1 2 2 2 2 1 1 1 2 2 2 2 1 1 1
7 5 5 4 4 5 5 5 4 4 5 6 6 5 5 4 4 4 4 4 3 2 2 2 3 3 3 2 3 3 3 3 3 3 3 3 3 3 3 3 3 3 3 2 1 0 1 0 0 1 1 2 1 1 2 2 2 2 2 1 1 2 2 2 2 1 1 1 2
6 5 4 4 4 4 4 4 4 4 4 5 4 4 4 3 3 4 4 4 3 2 2 1 2 3 3 3 3 3 3 3 3 3 3 3 3 3 3 3 3 3 2 2 1 1 1 1 2 2 2 2 1 1 1 2 2 2 2 1 2 2 2 2 2 2 2 2 2
6 5 4 4 4 4 4 4 3 3 4 4 4 3 3 3 3 3 4 4 4 3 2 2 2 2 3 4 4 4 4 3 3 3 3 3 3 3 3 3 2 2 2 1 1 1 2 2 3 3 2 1 1 1 1 1 2 2 2 2 2 2 2 2 2 2 2 3 3
5 5 4 4 4 3 4 4 4 4 4 4 4 4 3 3 3 3 4 5 4 3 3 3 2 2 3 4 4 4 4 3 3 3 3 3 3 3 3 3 2 2 2 1 1 2 3 3 3 3 2 1 0 1 1 2 3 3 3 3 2 2 2 2 2 2 2 3 4
5 4 4 4 4 4 4 4 4 4 5 5 4 4 4 4 3 4 4 5 4 3 3 3 3 3 3 3 3 4 4 3 3 3 3 3 3 3 3 3 2 2 2 2 2 2 2 2 2 1 1 2 3 3 4 4 4 3 3 3 2 2 1 2 2 2 2 3 4
5 4 4 4 4 4 4 4 4 5 5 5 5 5 4 4 4 3 4 4 3 3 3 3 3 3 3 2 2 3 3 3 3 3 3 3 3 3 3 3 3 3 2 2 2 1 1 1 1 2 3 4 5 6 6 5 5 4 4 3 2 2 1 2 2 2 3 3 4
5 4 4 4 4 5 5 5 5 5 5 5 5 5 4 4 4 3 3 3 3 3 3 3 2 2 3 3 2 3 3 3 4 4 4 4 4 4 3 3 3 2 2 2 2 2 2 3 4 4 5 6 6 6 6 6 5 4 4 3 2 2 2 2 2 2 3 3 4
5 4 4 4 4 5 5 5 5 5 5 5 5 4 4 4 4 3 3 2 2 3 3 2 2 2 3 3 3 3 3 4 4 5 4 4 4 3 3 3 2 2 2 2 3 3 4 5 5 5 6 6 5 5 5 5 4 3 2 2 2 2 2 2 3 3 3 3 5
5 4 4 4 4 4 5 5 5 5 4 4 5 4 4 3 3 3 3 2 2 3 3 3 2 2 3 3 3 4 4 4 4 5 5 4 4 3 3 3 3 3 3 4 4 5 6 6 6 5 5 5 5 5 5 4 3 1 1 2 2 2 3 3 3 4 4 4 5
4 4 3 3 3 4 4 4 4 4 5 5 5 4 4 3 3 3 3 3 3 3 2 2 2 3 3 3 4 4 4 3 4 4 4 4 4 4 4 4 4 4 4 5 5 6 6 6 5 5 4 4 4 4 4 3 2 1 2 2 3 3 4 4 4 5 5 5 5
3 3 3 3 3 4 4 4 4 4 4 4 4 4 4 3 3 2 2 2 2 2 1 1 2 2 3 4 4 4 3 2 2 2 2 3 3 3 4 4 5 5 5 5 6 6 7 6 5 4 3 3 3 3 3 2 2 2 3 3 4 5 5 5 5 5 5 5 5
3 3 3 3 3 4 4 4 4 4 4 4 4 4 3 3 3 2 2 2 2 1 0 1 1 2 3 3 4 3 3 2 2 1 1 1 3 4 4 5 5 6 5 5 5 6 6 5 4 3 3 3 3 2 2 2 2 2 3 4 5 5 5 5 5 5 4 4 4
3 3 3 3 4 4 4 4 4 4 4 4 4 4 4 4 3 3 2 2 1 1 0 1 1 2 2 2 3 3 2 2 2 1 1 2 3 4 5 5 6 6 5 4 5 5 5 4 3 3 2 2 2 2 1 1 2 2 3 3 4 5 5 5 4 4 4 4 3
5 5 4 4 4 4 4 4 5 5 5 5 5 5 4 3 3 2 2 1 1 0 1 1 2 2 2 2 2 2 2 3 3 2 2 2 3 4 5 5 5 5 5 5 8 9 7 5 4 2 2 1 1 1 1 2 2 2 2 2 3 3 4 4 4 4 3 3 3
5 5 5 4 5 5 5 6 6 6 5 5 5 4 3 2 2 1 1 0 1 1 1 2 2 2 2 2 1 2 2 2 2 2 3 4 5 6 6 5 4 4 5 7 9 9 8 7 5 4 2 2 1 1 2 2 2 2 2 2 2 2 3 3 4 3 3 3 2
5 5 5 5 6 7 7 6 6 6 5 4 3 3 2 1 1 1 0 1 1 2 2 2 2 2 2 2 2 2 2 2 2 3 4 5 7 7 6 5 4 4 5 8 9 8 8 7 6 4 3 2 2 2 2 1 2 2 1 2 2 2 2 2 2 3 3 3 3
5 5 6 7 7 7 7 6 6 5 4 3 2 1 1 1 1 0 0 1 2 2 2 2 2 1 1 1 2 3 3 2 3 4 5 7 7 7 6 5 5 5 7 9 9 8 7 6 5 4 4 3 2 2 2 1 1 1 1 2 2 2 1 1 1 2 2 3 3
6 7 7 8 7 7 7 6 5 4 3 2 1 1 1 1 0 0 1 2 2 2 2 2 2 1 1 2 3 3 3 3 3 4 6 7 7 7 6 6 6 7 8 10 9 8 6 6 5 4 4 4 3 2 2 1 1 1 1 2 1 1 1 1 1 1 2 2 3
7 8 8 8 7 7 6 4 3 3 2 2 1 1 1 0 1 1 2 2 3 3 2 2 2 2 3 3 3 3 3 3 3 4 6 8 7 6 5 6 6 6 8 9 8 7 6 5 4 4 4 4 4 3 2 2 2 1 1 1 1 1 0 1 1 1 2 2 3
8 8 8 8 7 6 4 3 3 2 2 2 2 1 0 1 1 2 2 2 2 2 2 2 2 3 4 4 3 3 2 2 3 5 6 8 7 6 6 6 6 6 7 9 8 7 6 6 5 4 4 5 4 3 2 2 2 2 2 1 1 1 0 0 1 1 2 2 2
8 7 7 7 6 4 3 2 2 2 2 2 1 1 1 1 2 2 2 2 2 2 2 2 3 4 4 4 4 3 1 2 4 6 7 8 8 7 7 7 6 6 8 10 9 8 7 7 6 5 5 5 4 3 3 3 3 2 2 1 1 1 0 0 1 1 2 2 2
8 7 7 6 4 3 2 2 2 2 1 1 0 1 1 2 2 2 2 2 2 2 2 3 3 3 4 4 3 1 1 3 5 6 8 8 8 8 7 6 5 6 8 10 10 9 8 7 7 6 6 6 5 4 3 3 2 2 1 1 1 1 1 0 1 1 2 2 2
7 7 6 5 4 3 2 2 2 1 1 0 1 1 2 2 2 2 2 2 2 2 2 2 3 3 3 3 1 1 2 3 5 7 7 8 8 8 7 5 4 6 9 11 10 9 9 8 7 7 7 7 5 4 3 3 2 1 1 0 0 1 1 1 1 2 2 2 2
7 6 5 4 3 3 2 2 1 1 0 1 2 2 2 2 2 3 3 3 2 2 2 2 2 2 2 1 1 2 3 5 6 7 7 7 8 8 7 6 6 8 10 11 10 10 9 9 8 8 8 6 4 3 3 3 2 2 1 1 1 1 1 2 2 2 2 3 3
6 5 5 4 3 2 2 1 1 0 1 1 2 2 2 2 2 3 2 2 1 1 2 2 2 1 1 1 1 2 4 6 7 7 7 7 8 8 8 8 7 9 11 12 11 11 10 9 9 9 8 6 3 2 3 3 2 2 1 1 1 1 2 2 3 3 3 3 3
5 5 4 3 2 2 1 1 0 0 1 2 2 2 2 3 3 2 2 1 1 1 2 2 1 1 1 1 1 2 4 6 7 7 7 7 8 8 8 8 7 8 10 12 12 12 11 10 10 9 8 5 3 2 3 3 2 2 1 1 1 2 2 2 3 3 3 4 4
4 4 4 3 2 1 1 1 0 1 2 2 2 2 2 2 2 2 2 1 1 1 2 2 2 2 2 2 2 3 4 6 7 7 8 8 8 8 8 8 8 8 9 12 13 12 12 11 11 10 8 4 4 3 3 2 2 1 1 0 1 2 3 2 2 3 3 4 6
4 3 3 2 2 1 1 1 1 2 2 3 3 2 2 2 2 2 2 2 2 2 2 2 2 2 3 3 3 3 4 5 6 6 7 8 8 9 9 9 8 8 9 12 13 13 12 12 11 10 8 5 4 4 4 3 2 1 0 1 1 2 3 3 2 3 3 5 7
3 3 2 2 2 1 1 1 2 2 2 2 2 2 2 2 2 2 2 1 2 2 2 2 3 3 3 3 3 3 3 3 4 5 6 7 8 10 10 9 9 9 10 13 14 14 13 12 11 10 8 5 4 4 4 3 3 1 0 1 1 2 3 3 3 3 3 4 6
3 2 2 2 2 1 1 1 2 2 2 2 2 2 2 2 2 2 2 1 1 1 2 2 3 3 2 3 3 3 3 3 3 4 5 7 8 9 10 9 9 9 10 12 15 15 14 13 12 11 9 5 4 4 4 4 3 2 1 1 1 1 2 3 3 3 3 4 4
Wind_Direction
83 85 91 95 98 101 102 103 104 107 111 113 113 109 101 89 88 99 122 149 153 152 147 141 138 141 141 137 116 106 97 88 82 78 75 75 75 76 77 76 78 79 77 73 67 65 63 64 66 60 50 48 356 310 290 265 249 257 278 262 204 187 178 175 196 206 206 202 196
86 85 87 91 95 99 101 100 97 94 93 95 95 92 92 96 114 138 158 163 153 143 134 130 130 125 117 102 94 92 89 84 79 73 71 71 74 80 85 87 87 89 89 88 83 79 76 79 77 67 47 10 2 328 306 267 226 287 306 289 248 208 182 185 204 201 187 155 43
96 93 92 94 97 99 99 98 95 91 87 85 87 92 101 116 133 147 152 154 143 132 123 120 116 108 98 88 79 77 78 82 81 79 77 78 77 81 87 94 93 93 95 99 98 100 102 106 106 101 92 5 348 317 295 272 237 262 283 275 256 226 184 227 200 155 101 61 46
99 98 98 99 101 104 105 105 100 97 95 95 96 101 109 116 112 119 126 131 117 110 108 109 101 95 92 89 81 74 70 76 86 92 93 90 85 84 89 96 93 93 98 109 115 121 131 139 137 140 148 177 263 272 270 262 254 257 259 254 228 184 143 27 72 71 62 52 46
97 99 103 106 108 109 109 107 105 104 103 104 105 104 101 92 99 108 113 107 100 97 98 98 98 96 96 97 92 87 81 83 95 101 102 98 93 90 90 90 95 101 118 134 139 146 151 151 154 172 194 208 235 248 250 244 256 276 284 289 30 101 86 59 57 59 57 51 42
106 105 107 108 108 107 105 105 106 106 106 106 107 105 103 101 108 110 110 107 101 93 89 91 97 99 99 98 98 96 95 95 102 105 107 105 105 103 95 92 104 123 152 172 173 170 164 142 247 263 248 239 253 254 250 233 279 339 342 355 4 35 57 59 57 61 61 56 37
117 116 113 110 106 104 102 101 101 103 104 107 112 116 117 115 110 110 111 111 102 94 89 91 101 105 106 104 102 103 106 109 108 111 114 118 118 115 111 117 130 158 192 206 202 201 191 159 306 298 289 286 288 289 297 33 49 39 23 3 354 25 61 69 73 77 73 61 37
119 117 115 111 108 107 106 104 105 107 112 117 122 124 124 119 116 115 113 109 109 110 109 106 117 119 122 119 117 119 122 126 123 125 127 130 126 124 128 140 156 200 222 213 209 223 246 244 295 298 297 300 303 309 330 46 68 75 71 35 357 40 84 104 104 96 79 59 31
115 115 114 114 113 112 111 111 116 121 125 127 129 130 128 125 123 121 119 118 124 125 124 122 131 132 129 127 130 134 138 140 141 142 143 139 134 135 140 155 193 244 246 232 219 226 257 291 305 301 297 298 299 306 327 76 97 106 118 132 105 85 91 110 104 88 72 54 21
121 121 119 119 119 115 113 115 123 128 131 133 135 134 133 129 127 126 128 133 131 126 127 140 143 137 132 133 141 147 151 151 150 151 151 148 145 149 159 179 208 243 256 252 235 228 268 322 321 311 301 290 278 269 237 133 125 129 136 143 124 97 74 63 63 63 56 48 10
131 132 132 132 128 121 117 119 127 133 136 139 141 140 136 131 129 130 131 127 119 123 138 155 146 141 139 144 152 158 160 160 156 154 154 157 160 168 178 193 207 229 247 255 249 241 27 10 329 304 291 274 244 213 181 153 140 136 137 143 112 85 59 30 30 39 45 32 347
139 141 141 138 133 126 123 125 130 135 139 143 145 142 137 132 132 130 125 116 119 133 155 157 144 141 144 153 161 165 165 163 159 157 158 166 174 183 192 203 213 226 239 251 246 172 102 125 184 239 256 259 236 199 174 160 143 134 125 111 81 63 46 13 4 5 10 1 335
145 145 143 136 131 127 125 125 128 134 140 144 144 140 135 132 132 130 127 126 136 149 165 162 147 148 152 160 165 167 168 167 163 162 166 175 184 192 201 213 220 229 240 248 216 145 142 162 181 197 216 241 233 204 177 159 137 122 106 79 58 47 30 2 348 343 343 347 333
148 147 143 135 131 126 124 122 125 131 137 141 142 138 134 135 140 140 138 142 153 162 168 164 162 164 165 165 166 168 169 167 164 167 173 187 192 198 207 220 224 230 236 237 182 158 165 179 189 192 199 215 223 213 169 128 110 102 92 76 59 42 18 350 338 339 342 340 329
149 148 143 137 132 126 124 123 127 131 134 139 141 142 142 147 154 153 152 156 164 167 166 161 172 179 179 170 166 165 165 164 165 170 181 196 203 207 211 219 224 224 222 211 186 181 184 191 192 189 181 162 100 54 50 57 68 74 77 75 65 46 12 345 336 334 334 330 324
149 149 145 138 132 126 124 128 131 133 135 140 144 145 148 156 162 163 162 164 168 167 164 165 173 180 184 181 169 163 161 163 168 175 186 202 210 213 213 215 216 211 202 190 192 196 201 199 188 159 112 80 64 56 50 47 50 54 57 59 52 35 5 337 327 324 321 321 319
147 148 145 137 132 130 131 134 135 135 137 141 144 147 151 157 162 167 169 168 165 165 171 180 177 175 178 188 179 169 164 170 178 186 195 205 211 212 211 210 207 199 188 177 178 181 172 75 61 63 68 69 66 62 57 50 45 41 36 32 24 6 338 316 312 312 315 316 315
146 146 143 137 137 138 140 142 140 139 138 142 145 148 150 153 158 163 169 165 159 165 176 191 189 183 183 192 197 188 181 182 193 200 205 208 208 206 204 203 195 183 168 155 139 109 80 67 60 61 65 69 69 67 63 56 45 33 21 6 348 327 311 305 304 308 314 318 315
146 145 145 145 147 148 148 148 144 142 141 143 143 143 142 144 147 149 152 156 162 169 176 189 200 204 204 206 210 207 202 197 203 208 211 208 201 194 190 183 165 146 132 119 104 91 81 75 69 66 67 69 70 70 68 63 52 32 3 331 316 310 309 310 312 316 319 320 318
148 151 154 156 153 152 150 151 147 144 142 140 136 132 130 131 132 136 144 166 177 176 175 182 199 217 226 227 228 227 224 213 210 211 212 204 191 181 170 152 133 118 107 100 93 86 80 75 70 69 69 73 73 73 72 71 63 37 339 313 312 316 319 323 327 327 328 325 322
154 158 160 157 149 148 149 152 148 144 140 135 128 124 123 127 132 142 153 170 176 173 172 181 201 224 240 246 246 246 243 233 222 217 211 195 179 164 150 136 123 109 96 88 86 82 79 75 74 75 77 80 78 77 74 68 54 22 346 331 330 330 332 333 334 332 330 326 322
158 157 151 141 139 139 142 146 140 135 130 125 121 122 126 130 131 135 141 147 146 148 157 191 219 238 249 254 255 255 256 258 245 230 210 180 156 142 133 124 109 97 87 80 83 84 83 80 80 81 82 82 77 73 67 59 38 12 353 346 341 338 335 334 333 330 327 323 321
150 140 130 127 126 127 128 128 123 119 116 116 116 114 109 99 89 83 79 79 81 82 103 232 242 246 250 253 253 255 259 265 260 251 183 129 124 121 115 105 93 86 82 79 84 87 88 86 83 80 78 79 76 70 62 54 37 16 359 349 342 336 332 329 327 325 323 323 325
134 126 121 117 118 119 120 119 114 109 105 101 93 84 75 67 62 58 54 52 51 41 291 256 250 250 250 250 245 241 239 240 234 212 122 99 107 105 100 91 85 83 82 81 85 89 91 93 89 84 79 80 82 79 70 58 42 24 5 349 337 330 324 321 321 323 326 330 336
127 120 114 111 113 113 111 105 98 92 85 79 73 68 65 63 62 59 51 36 12 296 259 254 252 251 249 247 236 224 216 213 205 179 133 102 92 88 86 84 85 85 86 88 92 94 97 103 109 110 108 100 95 82 63 51 40 25 4 340 325 319 317 318 321 325 330 334 339
118 112 106 106 105 100 94 90 86 80 74 68 65 65 66 71 77 79 65 357 288 267 255 255 255 250 243 238 233 227 219 210 189 156 123 103 87 82 83 87 90 92 95 100 103 106 109 116 124 132 137 126 104 79 52 33 24 12 352 322 308 304 309 316 322 326 327 327 328
108 105 104 103 96 92 89 86 81 75 70 68 68 71 77 93 104 105 110 274 272 271 271 271 265 254 240 235 241 238 231 213 166 130 113 101 95 94 95 98 99 105 113 119 122 124 126 126 128 130 132 127 112 94 69 34 8 352 330 301 289 289 295 307 314 317 317 319 318
106 105 101 95 91 90 88 84 79 77 75 78 84 94 113 132 138 167 255 280 291 295 296 290 278 268 255 256 254 245 230 201 158 129 114 104 108 112 117 118 120 127 134 138 139 137 133 126 122 123 125 130 122 112 102 78 11 322 295 279 275 275 280 288 296 304 311 316 316
106 101 96 92 90 88 86 84 86 89 94 102 117 135 151 164 184 268 299 310 310 305 299 291 290 291 288 278 268 255 233 198 166 139 121 112 117 123 128 129 131 137 143 145 143 138 132 125 124 127 130 131 124 118 117 121 162 235 256 259 257 264 276 286 292 303 312 315 320
101 98 96 94 92 90 90 95 104 112 119 129 144 157 167 184 301 315 315 311 301 293 285 284 293 291 284 276 275 268 251 210 163 133 120 119 122 126 129 129 132 140 146 147 145 142 139 138 144 147 141 127 120 119 126 145 172 200 223 243 245 253 263 285 311 317 321 322 327
98 98 97 96 96 99 106 117 121 126 134 149 160 166 184 312 311 308 302 296 289 286 285 289 291 286 281 278 280 275 261 198 134 118 116 120 125 129 131 131 137 145 152 156 156 155 155 159 164 161 147 129 125 129 145 164 181 194 204 215 218 226 244 276 321 326 328 328 330
98 98 98 100 105 112 121 126 129 138 149 161 170 194 292 302 294 293 289 286 285 289 292 293 291 289 290 291 289 280 240 149 125 119 120 125 130 135 138 140 149 159 165 167 166 167 169 172 170 163 150 139 140 150 166 176 183 186 184 181 182 191 212 277 321 324 326 323 321
99 100 104 109 117 123 130 133 143 151 159 167 212 281 296 294 298 302 298 289 279 276 279 282 286 289 291 291 287 266 172 138 122 120 123 128 133 137 142 148 162 174 178 175 174 176 178 178 172 163 154 151 156 166 176 176 172 166 159 156 182 199 216 255 302 315 314 310 305
105 108 113 120 127 134 142 151 159 161 163 255 291 295 296 303 305 300 291 277 268 264 264 267 273 276 277 276 248 186 142 117 112 116 122 128 132 137 144 158 177 188 188 182 181 182 183 181 173 165 160 159 165 171 171 156 141 122 108 91 244 258 258 272 289 298 302 303 303
115 119 123 130 138 146 155 165 168 171 218 296 296 298 300 297 285 276 269 259 258 263 268 270 272 275 274 262 177 142 123 109 112 117 124 129 134 142 153 170 189 195 193 187 187 187 187 183 175 168 165 166 172 169 153 129 114 103 93 63 343 311 299 295 296 298 299 303 308
125 129 133 141 148 155 163 170 175 206 288 290 292 292 288 279 269 261 254 243 249 267 280 282 290 294 289 251 158 132 123 120 120 124 130 136 143 153 166 181 194 198 196 191 191 192 190 185 178 172 169 169 170 153 128 112 109 103 93 60 334 305 295 295 298 301 304 308 309
133 135 138 143 151 161 170 172 177 276 286 280 275 271 269 265 263 258 248 224 242 272 280 284 286 272 237 197 160 140 132 128 128 133 141 149 156 165 174 185 196 201 200 196 196 195 194 189 182 177 173 172 159 132 113 105 103 96 83 40 299 285 282 283 291 299 305 307 308
137 137 138 142 153 167 175 168 202 256 264 264 259 255 253 251 253 251 238 201 210 247 264 270 254 232 212 185 156 140 132 131 135 142 152 162 168 172 177 184 195 202 204 200 200 199 197 192 187 183 179 171 150 132 120 110 102 95 78 311 289 284 281 279 289 297 302 304 311
137 136 136 141 155 168 186 204 230 241 247 252 256 257 255 246 244 239 227 200 202 217 232 236 228 218 205 179 151 139 136 140 146 154 164 173 176 176 176 180 191 200 205 203 202 201 199 195 191 187 183 168 148 135 127 120 114 109 111 285 295 295 295 290 293 298 301 301 313
131 128 129 138 154 169 197 231 241 241 240 243 253 255 253 241 236 234 229 212 209 212 214 212 212 209 197 169 147 142 148 159 165 169 173 177 177 176 175 177 187 197 204 205 204 202 200 195 191 187 181 164 146 134 127 121 118 118 151 265 288 299 302 300 301 301 300 299 309
118 119 126 138 155 170 196 233 251 251 248 245 246 243 236 231 234 234 237 239 235 221 209 202 201 196 181 154 144 148 159 177 191 189 180 175 175 175 177 179 186 194 201 204 203 202 200 195 190 184 178 160 145 132 124 118 120 134 195 241 245 269 292 303 306 306 302 298 301